Tracking 17265 objects as of 5-September-2015
HD Live streaming from Space Station

Track Soyuz TMA-18M
and Space Station

OSCAR 36 (UOSAT 12)

Track OSCAR 36 (UOSAT 12) now!
10-day predictions
OSCAR 36 (UOSAT 12) is classified as:


NORAD ID: 25693
Int'l Code: 1999-021A
Perigee: 609.5 km
Apogee: 660.3 km
Inclination: 64.6 °
Period: 97.3 minutes
Semi major axis: 7005 km
RCS: 1.4285 m2 (large)
Launch date: April 21, 1999
Source: United Kingdom (UK)

Used for email and communication services to remote areas.
Your satellite tracking list
Your tracking list is empty





NASA's NSSDC Master Catalog

Two Line Element Set (TLE):
1 25693U 99021A   15247.49665703  .00000072  00000-0  28238-4 0  9991
2 25693  64.5575 333.9004 0036240 230.8253 211.3834 14.80503343883685

Source of the keplerian elements: AFSPC

N2YO: 256